COSMOS 1275 DEB, 12711

Orbit data source: Space-Track

COSMOS 1275 DEB, 12711 is space debris in LEO originally from a launch on Thu, 04 Jun 1981 UTC launched from the Plesetsk Missile And Space Complex (PKMTR). Debris objects in space refer to the collection of defunct objects orbiting the Earth. Examples of debris include non-operational satellites, rocket bodies, and fragments generated from explosions, collisions, or faulty payload assembly.

Loading next visibility...
Identifier
12711, 1981-053BF
Orbit
LEO
Country
Flag of CISCIS
Related business
Manufacturer
Unknown
Mission
Spacecraft
Bus & Motor
Unknown
Mass
Unknown
Launch date (UTC)
1981-06-04 (45 years ago)
Launch vehicle
Unknown
Launch site
Plesetsk Missile And Space Complex (PKMTR)
Object type
Payload
Rocket body
Debris
Shape & HBR
Unknown shape, 0.1 m
Radar Cross Section
Medium (>0.1 m² and <1 m²)

Expand to show TLE details & history
Last TLE update: 14 hours ago

TLE from 14 hours ago
0 COSMOS 1275 DEB
1 12711U 81053BF  26255.16405494  .00000241  00000-0  23320-3 0  9992
2 12711  82.9642 314.9022 0061772 255.2110 133.0072 13.75204834255213
Epoch: 2026-09-12T03:56Z
TLE epoch observation values (Epoch: 2026-09-12T03:56:14.346Z)
Latitude
28.54011°
Longitude
-91.50574°
Altitude
1,015.626 km
Speed
7.331 km/s
True Right ascension
21h 14m 55s
True Declination
28° 24' 04"
Sunlit
Object was in full shadow at epoch
Visualization orbit readout
Latitude
Unknown
Longitude
Unknown
Altitude
Unknown
Speed
Unknown
Apparent Right ascension
Unknown
Apparent Declination
Unknown
Sunlit
N/A
Visualization observer readout
Local Sidereal Time
10:20:14
Azimuth
Unknown
Elevation
Unknown
Doppler factor
Unknown
Orbital elements
Apogee altitude
1,023.532 km
Perigee altitude
932.651 km
Semi-major axis
7,356.229 km
Eccentricity
0.00618
Inclination
82.9642°
RAAN
314.9022°
Arg. of periapsis
255.211°
True anomaly
133.52211°
Mean anomaly
133.0072°
Eccentric anomaly
133.26493°
Mean motion
3.44002 °/min
Orbital period
104.65 mins
BSTAR
0.0002332
Loading maneuver chart data...
Computing Atmospheric mass density...

Documentation

Showing up to 5 results
|